Regional Weather Roundup
Issued by NWS Charleston, SC

Current Version | Previous Version | Graphics & Text | Print | Product List | Glossary On
Versions: 1 2 3 4 5 6 7 8 9 10 11 12 13 14 15 16 17 18 19 20 21 22 23 24 25 26 27 28 29 30 31 32 33 34 35 36 37 38 39 40 41 42 43 44 45 46 47 48 49 50
000
ASUS42 KCHS 270427
RWRCHS

REGIONAL WEATHER ROUNDUP
NATIONAL WEATHER SERVICE CHARLESTON SC
1200 AM EDT FRI MAR 27 2015

NOTE: "FAIR" INDICATES FEW OR NO CLOUDS BELOW 12,000 FEET WITH NO
SIGNIFICANT WEATHER AND/OR OBSTRUCTIONS TO VISIBILITY.

NOT ALL STATIONS ARE QUALITY CONTROLLED BY THE NATIONAL
WEATHER SERVICE. USE DATA WITH CAUTION...ESPECIALLY
DEWPOINT OBSERVATIONS.

SCZ027-030-031-034>040-042>050-270500-
...SOUTHEAST SOUTH CAROLINA...

CITY           SKY/WX    TMP DP  RH WIND       PRES   REMARKS
N CHARLESTON   CLOUDY    66  59  78 SW8       29.81S
WATERFRONT PRK   N/A     64 N/A N/A SW9         N/A
MOUNT PLEASANT FAIR      66  63  88 S8        29.80F
PINOPOLIS        N/A     70  55  60 CALM      29.73R
MONCKS CORNER  CLOUDY    66  57  72 SW6       29.80S
SUMMERVILLE    CLOUDY    64  59  82 SW5       29.81F
BEAUFORT MCAS  CLOUDY    66  61  84 S3        29.81F
BEAUFORT ARPT  CLOUDY    64  63  94 CALM      29.81S
HILTON HEAD IS CLOUDY    64  64 100 S9        29.83S FOG
WALTERBORO     CLOUDY    64  61  88 CALM      29.80F
ALLENDALE      CLOUDY    66  63  88 VRB3      29.79F

...SOUTHERN MIDLANDS AND PEE DEE...

CITY           SKY/WX    TMP DP  RH WIND       PRES   REMARKS
GEORGETOWN     NOT AVBL
KINGSTREE      NOT AVBL
ORANGEBURG     CLOUDY    68  58  70 SW14      29.79S
BARNWELL       FAIR      66  61  82 SW7       29.80F
AIKEN          FAIR      64  54  68 SW10      29.81S
MANNING        LGT RAIN  64  57  77 S6        29.78S
COLUMBIA       CLOUDY    69  56  62 SW9       29.75F
SUMTER         CLOUDY    64  60  85 S7        29.75S
FLORENCE       CLOUDY    68  57  68 S10       29.76S
MYRTLE BEACH   CLOUDY    64  57  77 S12       29.81F
N MYRTLE BEACH CLOUDY    62  60  93 S14       29.78F

$$

GAZ063-065-086>088-099>101-113>116-118-119-134>141-150-270500-
...SOUTHEAST GEORGIA...

CITY           SKY/WX    TMP DP  RH WIND       PRES   REMARKS
SAVANNAH ARPT  CLOUDY    66  63  90 S9        29.82F
HUNTER AAF     LGT RAIN  64  64 100 VRB3      29.80F FOG
FORT STEWART   CLOUDY    66  64  94 S6        29.80F
STATESBORO     CLOUDY    64  64 100 SW6       29.82S
SYLVANIA       CLOUDY    64  64  98 W5        29.82F
CLAXTON        CLOUDY    64  64 100 W5        29.83R

...CSRA...CENTRAL AND FAR SOUTHEAST GEORGIA...

CITY           SKY/WX    TMP DP  RH WIND       PRES   REMARKS
THOMSON        CLOUDY    67  62  85 SW3       29.82F
AUGUSTA-BUSH   CLOUDY    66  58  75 SW10      29.78F
AUGUSTA-DANIEL CLOUDY    67  57  70 SW10      29.79S
SWAINSBORO     FAIR      66  59  77 SW7       29.83F
VIDALIA        CLOUDY    63  63 100 W5        29.84S
EASTMAN        MOCLDY    64  64 100 SW3       29.86F
HAZLEHURST     CLOUDY    64  64 100 W3        29.84S FOG
ALMA           CLOUDY    65  64  97 W6        29.85R
WAYCROSS       CLOUDY    69  67  96 SW10      29.85S
JESUP          CLOUDY    68  68 100 SW3       29.84S
BAXLEY         CLOUDY    66  64  94 W5        29.85R
BRUNSWICK      CLOUDY    68  64  88 S8        29.84F
SAINT SIMONS   CLOUDY    65  63  93 S10G18    29.84F

$$

SCZ027-028-034-036>038-045-046-048>050-GAZ119-141-270500-
...LAKE AND SUPPLEMENTAL COASTAL OBSERVATIONS...

STATION/POSITION TIME  TEMP    WIND        PRES    WAVE   SWELL
                       AIR SEA DIR/SP/G            HT/PER HT/PER/DIR
                 (UTC) (F)     (DEG/KT/KT) (MB)    (FT/S) (FT/S/D)
UPR LAKE MARION  NOT AVBL
WINYAH BAY       0300   64     190/  5     1008.0F
LAKE MURRAY      0400   66     210/  7/  9 1007.1F
ACE BASIN NERRS  NOT AVBL
FORT PULASKI     0300   64 61  180/  6/ 11 1010.2F
SAPELO ISLAND    0400   66     190/ 11     1010.0S

$$

ANZ835-935-AMZ111-154-330-350-352-354-370-450-454-472-270500-
...C-MAN AND BUOY OBSERVATIONS...

STATION/POSITION TIME  TEMP    WIND        PRES    WAVE   SWELL
                       AIR SEA DIR/SP/G            HT/PER HT/PER/DIR
                 (UTC) (F)     (DEG/KT/KT) (MB)    (FT/S) (FT/S/D)
BUOY 41004       0350   71 71  170/ 14/ 16 1008.7F   5/ 8   5/ 8
BUOY 41008       0350   64 61  180/ 14/ 16 1009.7F   3/ 8   3/100/ 8
FOLLY BEACH CMAN 0400   62     200/  7/  9 1009.4F
CAPERS NEARSHORE 0300   62     210/ 10/ 10   N/A
FRIPP NEARSHORE  0300   62     210/ 10/ 12 1009.7F


STATION/POSITION TIME  TEMP    WIND        PRES    WAVE   SWELL
                       AIR SEA DIR/SP/G            HT/PER HT/PER/DIR
                 (UTC) (F)     (DEG/KT/KT) (MB)    (FT/S) (FT/S/D)
5E ST. MARYS GA  0321      64                N/A     3/ 8
FRYING PAN BUOY  0350   71 66  190/ 12/ 14 1009.9F   6/ 8   5/130/ 8
BUOY 41025       NOT AVBL
CAPE LOOKOUT NC  0400   63     190/ 11/ 13 1008.9F
BUOY 41002       0350   71 69  190/ 17/ 21 1014.2F   7/ 7   2/ 50/13
BUOY 41010       0320   76 76  200/ 19/ 23 1012.8F
ST AUGUSTINE FL  0400   67 64  230/  4/  6 1012.3F


$$



USA.gov is the U.S. government's official web portal to all federal, state and local government web resources and services.